Home   Weather   Melk   Past weeks

Flag for Austria Past Weather in Melk, Lower Austria, Austria — Yesterday and Last 2 Weeks

Now
36 °F

Chilly.


Feels Like: 36 °F
Forecast: 35 / 43 °F
Wind: 2 mph from Southwest

Location: Amstetten

Current Time: Feb 20, 2017 at 12:38:17 am

Latest Report: Feb 19, 2017 at 11:00 pm


Visibility: N/A

Pressure: 30.24 "Hg

Humidity: 93%

Dew Point: 34 °F

Location of MelkLocation

Past Weather in Melk — Graph

°F

Melk Temperature Yesterday

Maximum temperature yesterday: 43 °F (at 2:00 pm)
Minimum temperature yesterday: 30 °F (at 2:00 am)
Average temperature yesterday: 35 °F

High & Low Weather Summary for the Past Weeks

 TemperatureHumidityPressure
High51 °F (Feb 16, 4:00 pm)100% (Feb 6, 7:00 am)30.67 "Hg (Feb 6, 7:00 am)
Low25 °F (Feb 9, 5:00 am)51% (Feb 5, 1:00 pm)29.64 "Hg (Feb 5, 5:00 pm)
Average34 °F86%30.28 "Hg
* Reported Feb 4 11:00 pm — Feb 19 11:00 pm, Melk, Weather by CustomWeather, © 2017

Note: Actual official high and low records may vary slightly from our data, if they occured in-between our weather recording intervals... More about our weather records

Advertising

Melk Weather History for the Previous 24 Hours

Scroll right to see more
 ConditionsComfort  
Time TempWeatherWind HumidityBarometerVisibility
11:00 pm
Sun, Feb 19
36 °FChilly.2 mph93%30.24 "HgN/A
10:00 pm35 °FChilly.2 mph97%30.24 "HgN/A
9:00 pm34 °FChilly.2 mph98%30.23 "HgN/A
8:00 pm34 °FPassing clouds.14 mph97%30.21 "Hg1 mi
7:00 pm34 °FChilly.2 mph96%30.22 "HgN/A
6:00 pm36 °FChilly.1 mph92%30.22 "HgN/A
5:00 pm41 °FQuite cool.1 mph82%30.21 "HgN/A
4:00 pm42 °FQuite cool.2 mph80%30.23 "HgN/A
3:00 pm42 °FQuite cool.2 mph80%30.24 "HgN/A
2:00 pm43 °FQuite cool.2 mph78%30.26 "HgN/A
1:00 pm41 °FQuite cool.1 mph82%30.28 "HgN/A
12:00 pm38 °FChilly.1 mph92%30.31 "HgN/A
11:00 am37 °FChilly.1 mph97%30.32 "HgN/A
10:00 am34 °FChilly.1 mph100%30.33 "HgN/A
9:00 am33 °FChilly.No wind100%30.34 "HgN/A
8:00 am31 °FChilly.No wind100%30.34 "HgN/A
7:00 am31 °FChilly.1 mph100%30.33 "HgN/A
6:00 am31 °FChilly.1 mph100%30.34 "HgN/A
5:00 am31 °FChilly.1 mph100%30.34 "HgN/A
4:00 am30 °FChilly.No wind100%30.34 "HgN/A
3:00 am31 °FChilly.No wind100%30.35 "HgN/A
2:00 am30 °FChilly.1 mph100%30.35 "HgN/A
1:00 am31 °FChilly.1 mph100%30.36 "HgN/A
12:00 am33 °FChilly.1 mph100%30.36 "HgN/A
Weather by CustomWeather, © 2017

See weather overviewHow to use our weather pages